Date String (YYYY-MM-DD hh:mm:ss) UTC,Instrument flags,absolute air pressure of the measurement (hPa),sample flow rate (lpm),inlet stack bypass flow (lpm),air temperature of the measurement (°C),ambient temperature measured by the external sensor (°C),aerosol sample conditioner tube jacket temperature (°C),OPC LED temperature (°C),internal box temperature (°C),relative humidity of the measurement (%),span deviation,mass concentration of particles derived from Lorenz-Mie calculation of OPC scattering (μg/m³),mass concentration of particles derived from Lorenz-Mie calculation of OPC scattering (μg/m³),mass concentration of particles derived from Lorenz-Mie calculation of OPC scattering (μg/m³)
DateTimeUTC,F1_M11,P_M11,Q1_M11,Q2_M11,T1_M11,T2_M11,T3_M11,T4_M11,T5_M11,U1_M11,ZSPAN_M11,X2_M11,X0_M11,X1_M11
2024-05-11 01:00:00,SystemResetWarning,0833.2,5.01,000.00,024.7,023.1,000.0,033.4,026.3,020.0,0000.0,0004.59,0010.21,0004.21
2024-05-11 01:01:00,SystemResetWarning,0833.2,4.98,000.00,024.8,023.4,000.0,033.3,026.4,020.3,0000.0,0004.64,0010.26,0004.27
2024-05-11 01:02:00,SystemResetWarning,0833.2,5.00,000.00,024.8,023.6,000.0,033.3,026.5,020.3,0000.0,0004.68,0010.22,0004.31
2024-05-11 01:03:00,SystemResetWarning,0833.2,5.00,000.00,024.8,023.8,000.0,033.3,026.6,019.7,0000.0,0004.72,0010.45,0004.36
2024-05-11 01:04:00,SystemResetWarning,0833.2,5.00,000.00,024.9,024.0,000.0,033.3,026.7,019.8,0000.0,0004.77,0010.30,0004.40
2024-05-11 01:05:00,SystemResetWarning,0833.2,5.00,000.00,024.9,024.2,000.0,033.3,026.8,019.5,0000.0,0004.79,0010.53,0004.42
2024-05-11 01:06:00,SystemResetWarning,0833.2,5.00,000.00,025.0,024.3,000.0,033.3,026.8,019.7,0000.0,0004.80,0010.28,0004.45
2024-05-11 01:07:00,SystemResetWarning,0833.2,5.00,000.00,025.0,024.4,000.0,033.3,026.8,020.0,0000.0,0004.84,0010.96,0004.48
2024-05-11 01:08:00,SystemResetWarning,0833.2,5.00,000.00,025.0,024.5,000.0,033.3,026.9,019.7,0000.0,0004.85,0011.18,0004.47
2024-05-11 01:09:00,SystemResetWarning,0833.2,5.00,000.00,025.1,024.6,000.0,033.4,027.0,019.5,0000.0,0004.85,0011.24,0004.45
2024-05-11 01:10:00,SystemResetWarning,0833.2,5.00,000.00,025.1,024.7,000.0,033.4,027.0,019.5,0000.0,0004.86,0011.05,0004.46
2024-05-11 01:11:00,SystemResetWarning,0833.2,4.99,000.00,025.2,024.7,000.0,033.4,027.1,019.4,0000.0,0004.82,0011.03,0004.44
2024-05-11 01:12:00,SystemResetWarning,0833.2,5.00,000.00,025.2,024.8,000.0,033.4,027.1,019.5,0000.0,0004.81,0011.59,0004.42
2024-05-11 01:13:00,SystemResetWarning,0833.2,5.00,000.00,025.3,024.9,000.0,033.4,027.2,019.4,0000.0,0004.82,0011.90,0004.43
2024-05-11 01:14:00,SystemResetWarning,0833.2,4.99,000.00,025.3,024.9,000.0,033.5,027.2,019.3,0000.0,0004.84,0011.21,0004.45
2024-05-11 01:15:00,SystemResetWarning,0833.2,4.99,000.00,025.3,025.0,000.0,033.5,027.2,019.3,0000.0,0004.79,0011.35,0004.43
2024-05-11 01:16:00,SystemResetWarning,0833.2,5.00,000.00,025.4,025.0,000.0,033.5,027.3,019.2,0000.0,0004.79,0011.29,0004.43
2024-05-11 01:17:00,SystemResetWarning,0833.2,5.00,000.00,025.4,025.0,000.0,033.6,027.3,019.2,0000.0,0004.82,0011.81,0004.43
2024-05-11 01:18:00,SystemResetWarning,0833.2,5.00,000.00,025.4,024.1,000.0,033.6,026.8,019.3,0000.0,0004.81,0011.40,0004.42
2024-05-11 01:19:00,SystemResetWarning,0833.1,5.01,000.00,024.9,021.9,000.0,033.7,025.7,019.7,0000.0,0004.82,0011.05,0004.43
2024-05-11 01:20:00,SystemResetWarning,0833.2,5.02,000.00,024.6,021.7,000.0,033.6,025.5,020.2,0000.0,0004.81,0010.74,0004.46
2024-05-11 01:21:00,SystemResetWarning,0833.2,5.00,000.00,024.5,022.0,000.0,033.4,025.6,020.5,0000.0,0004.82,0010.64,0004.45
2024-05-11 01:22:00,SystemResetWarning,0833.2,5.00,000.00,024.5,022.4,000.0,033.3,025.8,020.6,0000.0,0004.85,0010.81,0004.46
2024-05-11 01:23:00,SystemResetWarning,0833.2,5.01,000.00,024.6,022.8,000.0,033.2,026.0,020.6,0000.0,0004.86,0011.03,0004.46
2024-05-11 01:24:00,SystemResetWarning,0833.2,4.98,000.00,024.6,023.1,000.0,033.2,026.2,020.5,0000.0,0004.87,0010.57,0004.45
2024-05-11 01:25:00,SystemResetWarning,0833.2,5.00,000.00,024.6,023.4,000.0,033.2,026.3,020.5,0000.0,0004.85,0010.26,0004.43
2024-05-11 01:26:00,SystemResetWarning,0833.2,5.01,000.00,024.7,023.6,000.0,033.1,026.4,020.4,0000.0,0004.84,0010.15,0004.43
2024-05-11 01:27:00,SystemResetWarning,0833.2,5.02,000.00,024.7,023.8,000.0,033.1,026.5,020.4,0000.0,0004.84,0010.92,0004.43
2024-05-11 01:28:00,SystemResetWarning,0833.2,5.00,000.00,024.8,024.0,000.0,033.1,026.6,020.5,0000.0,0004.81,0010.40,0004.43
2024-05-11 01:29:00,SystemResetWarning,0833.2,4.99,000.00,024.8,024.2,000.0,033.1,026.7,020.5,0000.0,0004.78,0011.04,0004.43
2024-05-11 01:30:00,SystemResetWarning,0833.2,5.00,000.00,024.9,024.3,000.0,033.2,026.7,020.4,0000.0,0004.77,0011.06,0004.42
2024-05-11 01:31:00,SystemResetWarning,0833.2,5.00,000.00,024.9,024.4,000.0,033.2,026.8,020.3,0000.0,0004.76,0010.98,0004.40
2024-05-11 01:32:00,SystemResetWarning,0833.2,5.00,000.00,025.0,024.5,000.0,033.2,026.8,020.2,0000.0,0004.72,0010.76,0004.38
2024-05-11 01:33:00,SystemResetWarning,0833.2,5.00,000.00,025.0,024.5,000.0,033.2,026.9,020.2,0000.0,0004.71,0010.78,0004.38
2024-05-11 01:34:00,SystemResetWarning,0833.2,5.00,000.00,025.1,024.6,000.0,033.2,026.9,020.1,0000.0,0004.71,0010.26,0004.37
2024-05-11 01:35:00,SystemResetWarning,0833.2,5.01,000.00,025.1,024.7,000.0,033.3,027.0,020.1,0000.0,0004.70,0010.04,0004.36
2024-05-11 01:36:00,SystemResetWarning,0833.2,5.00,000.00,025.1,024.7,000.0,033.3,027.0,020.1,0000.0,0004.71,0010.15,0004.36
2024-05-11 01:37:00,SystemResetWarning,0833.2,5.00,000.00,025.2,024.8,000.0,033.3,027.1,020.1,0000.0,0004.74,0010.65,0004.35
2024-05-11 01:38:00,SystemResetWarning,0833.2,5.00,000.00,025.2,024.9,000.0,033.4,027.2,020.1,0000.0,0004.71,0009.96,0004.31
2024-05-11 01:39:00,SystemResetWarning,0833.2,5.00,000.00,025.3,024.9,000.0,033.4,027.2,020.1,0000.0,0004.69,0010.01,0004.29
2024-05-11 01:40:00,SystemResetWarning,0833.2,5.00,000.00,025.3,025.0,000.0,033.4,027.3,020.0,0000.0,0004.66,0009.69,0004.25
2024-05-11 01:41:00,SystemResetWarning,0833.2,4.99,000.00,025.4,025.0,000.0,033.5,027.3,019.9,0000.0,0004.65,0009.84,0004.21
2024-05-11 01:42:00,SystemResetWarning,0833.2,4.99,000.00,025.4,025.0,000.0,033.5,027.3,019.8,0000.0,0004.63,0009.73,0004.19
2024-05-11 01:43:00,SystemResetWarning,0833.2,4.99,000.00,025.5,025.0,000.0,033.6,027.3,019.7,0000.0,0004.57,0009.69,0004.15
2024-05-11 01:44:00,SystemResetWarning,0833.2,5.00,000.00,025.2,023.1,000.0,033.6,026.3,020.0,0000.0,0004.49,0009.40,0004.10
2024-05-11 01:45:00,SystemResetWarning,0833.4,5.01,000.00,024.8,021.7,000.0,033.6,025.5,020.5,0000.0,0004.42,0009.22,0004.05
2024-05-11 01:46:00,SystemResetWarning,0833.2,5.01,000.00,024.6,021.8,000.0,033.5,025.4,020.8,0000.0,0004.37,0009.36,0004.03
2024-05-11 01:47:00,SystemResetWarning,0833.1,5.00,000.00,024.5,022.2,000.0,033.4,025.6,020.9,0000.0,0004.33,0009.70,0004.00
2024-05-11 01:48:00,SystemResetWarning,0833.2,5.00,000.00,024.5,022.6,000.0,033.2,025.9,021.0,0000.0,0004.25,0008.90,0003.97
2024-05-11 01:49:00,SystemResetWarning,0833.2,5.00,000.00,024.6,023.0,000.0,033.2,026.1,020.9,0000.0,0004.22,0008.41,0003.95
2024-05-11 01:50:00,SystemResetWarning,0833.2,4.99,000.00,024.6,023.3,000.0,033.1,026.3,020.9,0000.0,0004.21,0008.24,0003.92
2024-05-11 01:51:00,SystemResetWarning,0833.2,4.99,000.00,024.6,023.5,000.0,033.1,026.4,020.9,0000.0,0004.18,0007.62,0003.89
2024-05-11 01:52:00,SystemResetWarning,0833.2,5.01,000.00,024.7,023.7,000.0,033.1,026.5,020.9,0000.0,0004.19,0007.51,0003.88
2024-05-11 01:53:00,SystemResetWarning,0833.2,5.01,000.00,024.7,023.9,000.0,033.1,026.6,020.9,0000.0,0004.18,0007.52,0003.87
2024-05-11 01:54:00,SystemResetWarning,0833.2,5.01,000.00,024.8,024.1,000.0,033.1,026.6,020.9,0000.0,0004.25,0008.03,0003.92
2024-05-11 01:55:00,SystemResetWarning,0833.2,5.00,000.00,024.8,024.2,000.0,033.1,026.7,021.1,0000.0,0004.33,0008.18,0003.98
2024-05-11 01:56:00,SystemResetWarning,0833.2,5.00,000.00,024.9,024.3,000.0,033.1,026.7,021.0,0000.0,0004.41,0008.54,0004.04
2024-05-11 01:57:00,SystemResetWarning,0833.2,4.99,000.00,024.9,024.4,000.0,033.2,026.8,021.1,0000.0,0004.45,0008.51,0004.07
2024-05-11 01:58:00,SystemResetWarning,0833.2,5.00,000.00,025.0,024.5,000.0,033.2,026.8,020.9,0000.0,0004.47,0008.15,0004.08
2024-05-11 01:59:00,SystemResetWarning,0833.2,4.98,000.00,025.0,024.6,000.0,033.2,026.9,020.9,0000.0,0004.52,0008.99,0004.13
